Simultaneous Nadir Overpasses (SNOs) Predictions

Prediction of SNOs between AQUA and METOP-B Satellite Orbit:

Table of predicted SNOs for the next 14.0 days since TLE Epoch: 8/29/2015
Index Date (AQUA) Time (AQUA) Lat,Lon (AQUA) SZA (AQUA ) Date (METOP-B) Time (METOP-B) Lat,Lon (METOP-B) SZA (METOP-B ) Distance(km) Time Diff (sec)
1 08/30/2015 18:11:32 73.73, -98.39 64.81 08/30/2015 18:10:47 73.71, -98.39 64.80 1.80 45
2 08/30/2015 19:00:59 -73.78, 69.14 115.13 08/30/2015 19:01:28 -73.77, 69.07 115.14 2.72 29
3 09/02/2015 13:45:43 73.71, -31.90 65.80 09/02/2015 13:45:08 73.73, -31.93 65.83 3.05 35
4 09/02/2015 14:35:11 -73.81, 135.52 114.09 09/02/2015 14:35:49 -73.79, 135.53 114.11 2.19 38
5 09/05/2015 09:19:56 73.76, 34.44 66.88 09/05/2015 09:19:30 73.75, 34.52 66.87 2.59 26
6 09/05/2015 10:09:23 -73.81,-158.02 113.06 09/05/2015 10:10:11 -73.81,-158.02 113.06 0.66 48
7 09/08/2015 04:04:32 -73.30, -65.77 112.58 09/08/2015 04:03:23 -73.25, -67.56 112.57 57.49 69
8 09/08/2015 04:54:08 73.77, 100.85 67.94 09/08/2015 04:53:52 73.77, 100.96 67.93 3.38 16
9 09/08/2015 05:43:35 -73.82, -91.60 112.01 09/08/2015 05:44:33 -73.83, -91.58 112.01 1.18 58
10 09/10/2015 23:38:50 -73.69, -0.16 111.11 09/10/2015 23:37:36 -73.66, -0.23 111.13 4.29 74
11 09/11/2015 00:28:18 73.76, 167.34 68.97 09/11/2015 00:28:13 73.78, 167.39 69.00 2.71 5
12 09/11/2015 01:17:46 -73.85, -25.22 110.92 09/11/2015 01:18:54 -73.84, -25.15 110.94 2.64 68




NCC Satellite Simultaneous Nadir Overpasses (SNOs) Prediction Service
